Terug naar catalogus

SL-12 R/B(2)

ActiefGEO
NORAD 24438·ROCKET BODY·🇷🇺 Russia

Gelanceerd Sep 26, 1996 vanaf Baikonur Cosmodrome

Loading…

TLE

VersSource: Space-Track

Epoch: Aug 29, 2026, 19:41 UTC

1 24438U 96058D   26241.82034544  .00000117  00000-0  00000+0 0  9992
2 24438  14.3555 350.4936 0007467 137.8241 187.6587  1.00322047109579

Volg SL-12 R/B(2) in realtime met AllMySat

Download on the App Store